CW7563 Weather Reports


Display with metric or nautical units.
time (UTC)temp
F
wind
direction
speed
MPH
gust
MPH
rain 1hr
in
rain 24hr
in
rain mn
in
humidity
%
barometer
mb
20260507073804 55 11 2.0 3.0 0.00 0.00 0.00 79 1020.9
20260507073305 55 9 2.0 3.0 0.00 0.00 0.00 79 1020.9
20260507072805 55 5 1.0 3.0 0.00 0.00 0.00 79 1020.8
20260507072307 56 358 2.0 5.0 0.00 0.00 0.00 79 1020.7
20260507071805 56 3 2.0 3.0 0.00 0.00 0.00 79 1020.7
20260507071305 56 324 2.0 5.0 0.00 0.00 0.00 79 1020.6
20260507070818 56 67 1.0 3.0 0.00 0.00 0.00 79 1020.7
20260507070305 56 15 2.0 3.0 0.00 0.00 0.00 79 1020.6
20260507065805 56 17 3.0 5.0 0.00 0.00 0.00 79 1020.7
20260507065306 56 4 3.0 3.0 0.00 0.00 0.00 79 1020.7
20260507064805 56 5 1.0 3.0 0.00 0.00 0.00 79 1020.7
20260507063805 56 295 2.0 3.0 0.00 0.00 0.00 79 1020.7
20260507063305 56 354 2.0 3.0 0.00 0.00 0.00 80 1020.7
20260507062804 56 7 2.0 3.0 0.00 0.00 0.00 79 1020.6
20260507062306 56 337 2.0 3.0 0.00 0.00 0.00 79 1020.7
20260507061805 56 5 3.0 6.0 0.00 0.00 0.00 79 1020.6
20260507061304 56 35 3.0 8.0 0.00 0.00 0.00 79 1020.7
20260507060805 57 3 3.0 6.0 0.00 0.00 0.00 79 1020.6
20260507060304 57 38 2.0 5.0 0.00 0.00 0.00 79 1020.7
20260507055805 57 5 2.0 8.0 0.00 0.00 0.00 79 1020.7
20260507054805 57 47 3.0 8.0 0.00 0.00 0.00 78 1020.6
20260507054304 57 8 3.0 6.0 0.00 0.00 0.00 78 1020.6
20260507053805 57 350 3.0 6.0 0.00 0.00 0.00 78 1020.6
20260507053304 57 356 3.0 5.0 0.00 0.00 0.00 78 1020.6
20260507052805 57 355 3.0 6.0 0.00 0.00 0.00 78 1020.5
20260507052306 57 45 3.0 5.0 0.00 0.00 0.00 78 1020.5
20260507051804 57 8 2.0 5.0 0.00 0.00 0.00 78 1020.5
20260507051305 57 349 5.0 8.0 0.00 0.00 0.00 78 1020.5
20260507050805 57 344 3.0 8.0 0.00 0.00 0.00 77 1020.6
20260507045805 58 343 3.0 7.0 0.00 0.00 0.00 77 1020.6
20260507045306 58 51 4.0 8.0 0.00 0.00 0.00 77 1020.6
20260507044804 58 18 4.0 9.0 0.00 0.00 0.00 77 1020.6
20260507044305 58 359 4.0 8.0 0.00 0.00 0.00 77 1020.6
20260507043805 58 350 5.0 9.0 0.00 0.00 0.00 77 1020.5
20260507043304 58 351 3.0 6.0 0.00 0.00 0.00 77 1020.4
20260507042805 58 7 7.0 12.0 0.00 0.00 0.00 76 1020.4
20260507042307 59 13 2.0 9.0 0.00 0.00 0.00 76 1020.4
20260507041805 59 17 3.0 7.0 0.00 0.00 0.00 76 1020.3
20260507041305 59 9 4.0 7.0 0.00 0.00 0.00 76 1020.3
20260507040805 59 326 2.0 8.0 0.00 0.00 0.00 76 1020.2
20260507040304 59 28 3.0 10.0 0.00 0.00 0.00 76 1020.1
20260507034805 60 350 3.0 10.0 0.00 0.00 0.00 76 1019.9
20260507034304 60 326 3.0 8.0 0.00 0.00 0.00 76 1019.8
20260507033804 60 11 4.0 10.0 0.00 0.00 0.00 76 1019.6
20260507033305 60 6 5.0 8.0 0.00 0.00 0.00 75 1019.5
20260507032807 61 346 3.0 10.0 0.00 0.00 0.00 76 1019.5
20260507032308 61 12 2.0 7.0 0.00 0.00 0.00 76 1019.5
20260507031807 61 41 2.0 3.0 0.00 0.00 0.00 76 1019.3
20260507030808 61 46 1.0 3.0 0.00 0.00 0.00 75 1019.2
20260507030307 61 93 1.0 3.0 0.00 0.00 0.00 75 1019.3
20260507025807 61 69 2.0 3.0 0.00 0.00 0.00 75 1019.3
20260507025307 61 47 2.0 3.0 0.00 0.00 0.00 74 1019.2
20260507024807 62 38 2.0 6.0 0.00 0.00 0.00 74 1019.1
20260507024307 62 29 3.0 6.0 0.00 0.00 0.00 73 1019.0
20260507023808 62 24 3.0 5.0 0.00 0.00 0.00 73 1019.0
20260507022807 63 19 1.0 5.0 0.00 0.00 0.00 72 1018.9
20260507022307 63 353 3.0 6.0 0.00 0.00 0.00 71 1018.9
20260507021807 64 350 2.0 5.0 0.00 0.00 0.00 71 1018.9
20260507021308 64 357 2.0 5.0 0.00 0.00 0.00 71 1018.9
20260507020807 64 8 2.0 7.0 0.00 0.00 0.00 70 1018.8
20260507020307 64 18 3.0 6.0 0.00 0.00 0.00 70 1018.8
20260507015307 65 336 5.0 12.0 0.00 0.00 0.00 70 1019.0
20260507014807 65 1 6.0 12.0 0.00 0.00 0.00 69 1019.0
20260507014307 66 1 5.0 8.0 0.00 0.00 0.00 68 1019.0
20260507013807 66 3 2.0 9.0 0.00 0.00 0.00 69 1019.0
20260507013306 66 0 3.0 8.0 0.00 0.00 0.00 69 1018.8
20260507012807 66 344 5.0 9.0 0.00 0.00 0.00 69 1018.9
20260507012307 67 65 4.0 9.0 0.00 0.00 0.00 69 1018.9
20260507011807 67 10 2.0 7.0 0.00 0.00 0.00 69 1018.8
20260507010807 67 20 2.0 8.0 0.00 0.00 0.00 69 1018.8
20260507010308 67 62 4.0 8.0 0.00 0.00 0.00 69 1018.8
20260507005807 68 29 4.0 9.0 0.00 0.00 0.00 68 1018.8
20260507005307 68 66 5.0 9.0 0.00 0.00 0.00 67 1018.7
20260507004807 68 34 3.0 7.0 0.00 0.00 0.00 66 1018.6
20260507004307 69 20 3.0 6.0 0.00 0.00 0.00 66 1018.7
20260507003807 70 358 3.0 5.0 0.00 0.00 0.00 64 1018.6
20260507003307 71 68 1.0 3.0 0.00 0.00 0.00 64 1018.6
20260507002807 71 134 2.0 3.0 0.00 0.00 0.00 64 1018.5
20260507002306 71 207 1.0 7.0 0.00 0.00 0.00 64 1018.6
20260507001807 71 277 3.0 8.0 0.00 0.00 0.00 63 1018.6
20260507001307 71 201 3.0 7.0 0.00 0.00 0.00 64 1018.6
20260507000806 70 177 1.0 7.0 0.00 0.00 0.00 65 1018.6
20260507000307 69 128 4.0 7.0 0.00 0.00 0.00 65 1018.6
20260506235807 70 142 2.0 7.0 0.00 0.00 0.00 64 1018.6
20260506235307 70 216 3.0 7.0 0.00 0.00 0.00 65 1018.5
20260506234807 70 250 1.0 2.0 0.00 0.00 0.00 65 1018.5
20260506234307 70 132 2.0 6.0 0.00 0.00 0.00 66 1018.5
20260506233807 69 37 4.0 7.0 0.00 0.00 0.00 66 1018.4
20260506232807 69 138 4.0 9.0 0.00 0.00 0.00 67 1018.6
20260506232307 69 104 2.0 7.0 0.00 0.00 0.00 67 1018.6
20260506231806 68 135 7.0 12.0 0.00 0.00 0.00 66 1018.7
20260506231307 69 177 3.0 6.0 0.00 0.00 0.00 67 1018.7
20260506230807 68 193 2.0 8.0 0.00 0.00 0.00 67 1018.8
20260506230307 68 149 4.0 7.0 0.00 0.00 0.00 67 1018.9
20260506225806 68 198 5.0 8.0 0.00 0.00 0.00 67 1019.0
20260506225306 68 119 4.0 9.0 0.00 0.00 0.00 68 1019.0
20260506224807 68 202 5.0 9.0 0.00 0.00 0.00 68 1019.0
20260506224307 68 237 4.0 12.0 0.00 0.00 0.00 68 1019.0
20260506223806 68 111 1.0 3.0 0.00 0.00 0.00 70 1019.1
20260506223307 67 141 2.0 6.0 0.00 0.00 0.00 71 1019.2
20260506222807 67 207 3.0 6.0 0.00 0.00 0.00 69 1019.1
20260506222307 67 133 2.0 3.0 0.00 0.00 0.00 70 1019.2
20260506221807 67 236 2.0 3.0 0.00 0.00 0.00 69 1019.3
20260506221307 66 148 3.0 5.0 0.00 0.00 0.00 69 1019.4
20260506220807 66 194 2.0 6.0 0.00 0.00 0.00 69 1019.4
20260506220307 66 269 2.0 3.0 0.00 0.00 0.00 69 1019.5
20260506215807 67 134 3.0 8.0 0.00 0.00 0.00 68 1019.5
20260506215307 67 207 3.0 6.0 0.00 0.00 0.00 67 1019.4
20260506214806 68 203 3.0 8.0 0.00 0.00 0.00 67 1019.3
20260506214306 68 224 3.0 8.0 0.00 0.00 0.00 68 1019.3
20260506213807 67 216 2.0 7.0 0.00 0.00 0.00 68 1019.4
20260506213307 66 287 3.0 8.0 0.00 0.00 0.00 69 1019.5
20260506212807 66 167 3.0 14.0 0.00 0.00 0.00 70 1019.6
20260506211307 65 150 3.0 8.0 0.00 0.00 0.00 71 1019.8
20260506210307 66 126 4.0 9.0 0.00 0.00 0.00 70 1019.9
20260506205807 65 199 2.0 3.0 0.00 0.00 0.00 71 1019.9
20260506204807 65 137 5.0 9.0 0.00 0.00 0.00 71 1019.9
20260506204307 66 184 5.0 12.0 0.00 0.00 0.00 70 1019.9
20260506203806 65 142 7.0 12.0 0.00 0.00 0.00 71 1019.8
20260506202807 66 233 5.0 10.0 0.00 0.00 0.00 71 1019.8
20260506202306 66 185 4.0 9.0 0.00 0.00 0.00 72 1019.8
20260506201806 66 199 3.0 9.0 0.00 0.00 0.00 72 1019.8
20260506201306 65 175 2.0 9.0 0.00 0.00 0.00 74 1019.8
20260506200806 65 173 3.0 9.0 0.00 0.00 0.00 74 1019.9
20260506195807 64 211 3.0 5.0 0.00 0.00 0.00 75 1020.1
20260506195307 64 249 3.0 8.0 0.00 0.00 0.00 75 1020.2
20260506194807 63 152 4.0 7.0 0.00 0.00 0.00 76 1020.2
20260506194307 63 146 7.0 9.0 0.00 0.00 0.00 75 1020.3
20260506193807 64 139 3.0 8.0 0.00 0.00 0.00 75 1020.2
20260506193306 63 196 2.0 8.0 0.00 0.00 0.00 76 1020.3
20260506192806 62 147 3.0 6.0 0.00 0.00 0.00 77 1020.3
20260506191806 62 169 3.0 7.0 0.00 0.00 0.00 77 1020.3
20260506191307 62 132 7.0 10.0 0.00 0.00 0.00 77 1020.1
20260506190806 62 120 6.0 12.0 0.00 0.00 0.00 77 1020.2
20260506190307 62 158 3.0 8.0 0.00 0.00 0.00 76 1020.3
20260506185806 62 182 5.0 10.0 0.00 0.00 0.00 77 1020.3
20260506185307 61 189 3.0 8.0 0.00 0.00 0.00 78 1020.1
20260506184807 62 154 5.0 9.0 0.00 0.00 0.00 78 1020.1
20260506184306 61 185 5.0 8.0 0.00 0.00 0.00 79 1020.1
20260506183806 61 199 6.0 9.0 0.00 0.00 0.00 79 1020.1
20260506183306 61 132 3.0 9.0 0.00 0.00 0.00 80 1020.2
20260506182806 60 135 3.0 9.0 0.00 0.00 0.00 80 1020.1
20260506182307 61 161 4.0 9.0 0.00 0.00 0.00 79 1020.2
20260506180806 60 236 3.0 8.0 0.00 0.00 0.00 80 1020.3
20260506180306 60 188 2.0 8.0 0.00 0.00 0.00 80 1020.2
20260506175806 60 220 1.0 3.0 0.00 0.00 0.00 80 1020.4
20260506175306 60 243 2.0 7.0 0.00 0.00 0.00 80 1020.2
20260506174306 59 227 3.0 5.0 0.00 0.00 0.00 79 1020.2
20260506173307 60 140 3.0 6.0 0.00 0.00 0.00 80 1020.0
20260506172307 59 155 3.0 5.0 0.00 0.00 0.00 81 1019.8
20260506171806 59 142 3.0 5.0 0.00 0.00 0.00 82 1019.9
20260506171306 58 191 3.0 5.0 0.00 0.00 0.00 82 1020.0
20260506170806 58 193 2.0 5.0 0.00 0.00 0.00 82 1020.0
20260506170306 58 179 3.0 7.0 0.00 0.00 0.00 83 1020.0
20260506165806 58 190 2.0 3.0 0.00 0.00 0.00 83 1020.1
20260506164806 58 198 2.0 5.0 0.00 0.00 0.00 83 1019.9
20260506164306 58 203 3.0 6.0 0.00 0.00 0.00 83 1019.9
20260506163807 58 195 2.0 3.0 0.00 0.00 0.00 83 1019.9
20260506163306 58 198 2.0 6.0 0.00 0.00 0.00 83 1019.9
20260506162806 58 200 1.0 5.0 0.00 0.00 0.00 84 1019.9
20260506162307 58 209 1.0 6.0 0.00 0.00 0.00 83 1019.8
20260506161806 58 175 3.0 5.0 0.00 0.00 0.00 83 1019.8
20260506161306 58 168 3.0 7.0 0.00 0.00 0.00 84 1019.7
20260506160806 58 203 3.0 6.0 0.00 0.00 0.00 84 1019.7
20260506160306 57 200 2.0 5.0 0.00 0.00 0.00 85 1019.7
20260506155806 57 138 4.0 9.0 0.00 0.00 0.00 85 1019.5
20260506154806 57 189 3.0 10.0 0.00 0.00 0.00 85 1019.2
20260506154305 57 145 5.0 10.0 0.00 0.00 0.00 86 1019.0
20260506153806 57 183 1.0 6.0 0.00 0.00 0.00 86 1019.3
20260506153306 56 139 3.0 8.0 0.00 0.00 0.00 87 1019.6
20260506152806 56 148 2.0 3.0 0.00 0.00 0.00 87 1019.8
20260506152306 56 142 2.0 5.0 0.00 0.00 0.00 87 1019.8
20260506151806 56 172 3.0 5.0 0.00 0.00 0.00 86 1019.9
20260506151306 56 187 1.0 3.0 0.00 0.00 0.00 87 1020.0
20260506150806 56 187 2.0 3.0 0.00 0.00 0.00 87 1019.9
20260506150306 56 191 1.0 3.0 0.00 0.00 0.00 87 1019.9
20260506145806 56 191 2.0 3.0 0.00 0.00 0.00 86 1019.8
20260506145306 56 231 2.0 3.0 0.00 0.00 0.00 87 1019.8
20260506144806 56 226 1.0 5.0 0.00 0.00 0.00 87 1019.8
20260506144306 56 226 2.0 5.0 0.00 0.00 0.00 86 1019.8
20260506143806 56 242 2.0 3.0 0.00 0.00 0.00 86 1019.7
20260506143306 56 138 0.0 2.0 0.00 0.00 0.00 87 1019.5
20260506142806 56 138 0.0 3.0 0.00 0.00 0.00 87 1019.4
20260506141306 56 148 3.0 5.0 0.00 0.00 0.00 87 1019.0
20260506140806 56 180 1.0 3.0 0.00 0.00 0.00 87 1019.0
20260506140306 56 195 1.0 5.0 0.00 0.00 0.00 87 1018.9
20260506135806 56 147 2.0 3.0 0.00 0.00 0.00 87 1019.0
20260506135306 56 148 2.0 5.0 0.00 0.00 0.00 87 1019.0
20260506134806 56 145 2.0 5.0 0.00 0.00 0.00 87 1019.0
20260506133305 56 146 1.0 3.0 0.00 0.00 0.00 87 1018.8
20260506132805 56 147 2.0 5.0 0.00 0.00 0.00 87 1018.7
20260506132307 57 140 2.0 5.0 0.00 0.00 0.00 87 1018.7
20260506131306 57 148 3.0 7.0 0.00 0.00 0.00 87 1018.5
20260506130806 57 151 3.0 7.0 0.00 0.00 0.00 87 1018.5
20260506130306 57 135 2.0 3.0 0.00 0.00 0.00 86 1018.6
20260506125806 57 132 1.0 2.0 0.00 0.00 0.00 86 1018.6
20260506125306 57 132 2.0 3.0 0.00 0.00 0.00 86 1018.6
20260506124806 57 144 2.0 3.0 0.00 0.00 0.00 86 1018.4
20260506123806 57 134 1.0 3.0 0.00 0.00 0.00 85 1018.4
20260506123306 57 129 2.0 3.0 0.00 0.00 0.00 84 1018.4
20260506122806 58 118 1.0 2.0 0.00 0.00 0.00 84 1018.4
20260506122306 58 119 1.0 2.0 0.00 0.00 0.00 84 1018.5
20260506121806 58 119 0.0 2.0 0.00 0.00 0.00 84 1018.6
20260506121305 58 119 1.0 3.0 0.00 0.00 0.00 84 1018.5
20260506120806 58 119 1.0 3.0 0.00 0.00 0.00 84 1018.4
20260506120305 58 36 1.0 2.0 0.00 0.00 0.00 84 1018.4
20260506115806 58 36 1.0 2.0 0.00 0.00 0.00 84 1018.4
20260506115307 58 36 0.0 1.0 0.00 0.00 0.00 84 1018.3
20260506114806 58 36 0.0 2.0 0.00 0.00 0.00 84 1018.2
20260506114306 58 34 1.0 1.0 0.00 0.00 0.00 84 1018.2
20260506113805 58 34 0.0 1.0 0.00 0.00 0.00 84 1018.0
20260506113305 58 34 0.0 1.0 0.00 0.00 0.00 84 1018.0
20260506112806 58 34 0.0 0.0 0.00 0.00 0.00 84 1018.0
20260506112306 58 34 0.0 0.0 0.00 0.00 0.00 84 1018.0
20260506111805 58 34 0.0 0.0 0.00 0.00 0.00 84 1017.9
20260506111305 58 34 0.0 1.0 0.00 0.00 0.00 84 1017.8
20260506110806 58 34 1.0 2.0 0.00 0.00 0.00 84 1017.8
20260506110306 58 100 1.0 2.0 0.00 0.00 0.00 84 1017.7
20260506105805 58 98 0.0 2.0 0.00 0.00 0.00 84 1017.6
20260506105305 58 98 0.0 2.0 0.00 0.00 0.00 84 1017.6
20260506104305 58 98 0.0 2.0 0.00 0.00 0.00 84 1017.4
20260506103306 58 98 0.0 1.0 0.00 0.00 0.00 84 1017.3
20260506102805 58 98 0.0 2.0 0.00 0.00 0.00 84 1017.3
20260506102306 58 99 0.0 2.0 0.00 0.00 0.00 84 1017.1
20260506101805 58 74 1.0 2.0 0.00 0.00 0.00 84 1017.1
20260506101305 58 74 1.0 2.0 0.00 0.00 0.00 84 1017.1
20260506100805 58 74 1.0 2.0 0.00 0.00 0.00 84 1017.1
20260506100305 58 74 0.0 2.0 0.00 0.00 0.00 84 1017.0
20260506095806 58 74 1.0 2.0 0.00 0.00 0.00 84 1017.0
20260506094805 59 74 0.0 3.0 0.00 0.00 0.00 84 1016.9
20260506094306 59 112 1.0 5.0 0.00 0.00 0.00 84 1016.9
20260506093805 59 171 1.0 3.0 0.00 0.00 0.00 84 1016.8
20260506093305 59 175 1.0 3.0 0.00 0.00 0.00 85 1016.9
20260506092806 59 175 0.0 1.0 0.00 0.00 0.00 85 1016.8
20260506092306 59 175 1.0 2.0 0.00 0.00 0.00 85 1016.8
20260506091805 59 175 0.0 0.0 0.00 0.00 0.00 85 1016.8
20260506091305 59 175 0.0 1.0 0.00 0.00 0.00 85 1016.7
20260506085805 59 175 0.0 1.0 0.00 0.00 0.00 84 1016.7
20260506085306 60 175 0.0 2.0 0.00 0.00 0.00 84 1016.7
20260506084305 60 175 1.0 2.0 0.00 0.00 0.00 84 1016.7
20260506083805 60 175 1.0 2.0 0.00 0.00 0.00 84 1016.6
20260506082805 60 175 1.0 2.0 0.00 0.00 0.00 83 1016.6
20260506082305 60 175 1.0 2.0 0.00 0.00 0.00 84 1016.6
20260506080805 60 175 1.0 2.0 0.00 0.00 0.00 83 1016.6
20260506080305 60 175 0.0 1.0 0.00 0.00 0.00 83 1016.5